Location: Madrid
(40.4000°N, 3.6830°W)
Time: 01:09:20
(UTC+02:00)

ISS - Pass Details

Date: 19 July 2019
Orbit: 409 x 418 km, 51.6° (Epoch: 23 July)

Event Time Altitude Azimuth Distance (km) Brightness Sun altitude
Rises 02:14:07 0° 305° (NW) 2,350 0.5 -28.6°
Reaches altitude 10° 02:17:17 10° 338° (NNW) 1,484 -0.2 -28.7°
Maximum altitude 02:18:42 12° 3° (N) 1,361 -0.3 -28.7°
Drops below altitude 10° 02:20:06 10° 29° (NNE) 1,482 -0.3 -28.7°
Sets 02:23:16 0° 61° (ENE) 2,341 0.4 -28.7°
